Dewpoint
60 56 53 47 34 43 43 51 56 52 49 52 51 52 54 55 52 47 59 60 64 68 72 74 77 77 77 76 76 76 77 77 77 77 76 76 76 75 74 74 74 74 73 73 72 72 73 73 73
45 40 46 40 30 39 44 50 54 54 51 50 46 54 52 55 55 55 60 61 63 67 68 73 76 77 77 77 77 77 77 77 77 76 76 76 75 74 73 73 73 73 72 72 73 73 73 73 73
52 42 30 29 30 37 45 45 43 47 50 48 48 55 53 53 52 52 62 62 61 62 68 73 76 76 77 76 77 76 76 76 76 76 75 74 74 73 73 72 72 72 72 72 72 73 74 73 73
38 34 30 26 25 44 48 49 44 48 48 47 49 51 52 53 53 55 64 63 61 63 70 75 75 76 76 76 76 76 76 75 75 74 74 73 73 73 73 72 72 73 73 72 73 74 73 73 72
40 28 21 27 28 44 46 53 52 49 49 47 51 53 52 53 53 55 63 63 65 67 70 73 75 75 75 75 75 75 75 74 74 74 73 73 73 73 73 73 72 73 73 72 72 72 71 70 71
29 20 17 16 26 44 50 57 55 53 51 48 52 54 55 54 54 57 58 63 69 67 69 71 75 75 75 75 75 74 74 74 73 73 73 73 73 73 73 73 73 73 72 70 70 69 68 68 68
25 16 13 13 16 40 49 55 53 55 54 48 52 54 55 54 55 54 55 68 68 68 69 71 72 73 74 74 74 74 74 73 73 73 73 73 73 72 72 72 73 72 68 66 66 67 67 68 68
18 14 11 12 15 40 45 45 51 55 46 49 50 49 53 55 56 53 57 63 65 68 68 69 70 71 72 73 75 75 74 73 73 73 73 73 73 73 73 73 73 71 68 68 68 68 68 69 69
20 15 12 13 33 41 46 43 53 55 53 53 46 50 54 55 53 49 49 54 64 64 66 67 68 68 68 71 73 74 73 73 73 72 71 70 69 69 71 73 72 70 69 69 69 69 69 70 70
16 13 13 15 39 37 41 44 52 50 55 54 50 50 51 52 49 47 47 48 57 60 61 63 63 65 64 68 70 69 69 70 69 64 64 67 66 66 68 68 71 69 69 69 69 69 71 69 62
15 11 12 16 24 39 39 45 52 47 48 54 54 53 51 49 48 47 47 48 49 56 59 60 60 62 61 64 66 66 67 67 65 62 62 64 61 63 62 61 61 60 66 62 62 60 59 58 57
10 9 10 15 17 24 19 43 45 47 51 52 52 54 55 53 50 46 45 47 47 50 53 57 59 60 62 64 64 66 64 63 62 62 62 65 65 63 62 62 60 60 60 59 59 58 57 56 53
8 8 9 8 9 17 19 34 47 50 51 51 54 51 53 55 50 45 44 46 45 46 52 56 57 62 63 62 61 61 59 61 63 64 63 63 65 63 63 62 62 60 59 57 56 55 54 53 52
10 11 8 6 6 10 16 42 47 49 52 52 52 51 53 55 50 46 47 46 44 46 51 57 59 63 61 64 60 61 62 61 65 64 63 62 64 62 61 61 61 57 56 55 53 52 51 52 51
18 14 9 11 7 7 12 14 29 48 50 51 54 55 54 54 53 48 49 50 49 46 57 60 63 64 63 62 63 62 63 62 64 62 61 60 60 59 59 60 58 55 55 53 53 52 53 52 51
17 15 14 11 13 4 9 10 16 46 46 46 46 48 50 53 54 55 62 62 60 54 57 61 61 66 64 64 65 62 62 64 64 62 60 60 58 59 58 57 57 55 54 53 53 53 52 51 50
19 15 13 12 11 8 9 10 15 40 46 46 46 45 47 53 62 63 64 65 64 63 58 59 63 65 64 66 65 66 63 63 61 60 60 60 60 60 60 58 57 53 54 53 53 52 51 49 49
15 15 13 9 9 10 11 13 16 21 26 42 39 50 58 62 61 62 64 66 66 63 68 62 63 64 66 67 66 64 63 62 62 62 62 61 59 56 56 55 53 54 53 51 52 50 50 49 49
16 15 11 14 15 14 14 15 21 20 24 29 48 51 60 61 59 60 62 64 66 62 68 71 69 69 70 68 66 65 63 63 63 61 62 61 57 53 54 52 53 52 51 51 51 50 49 49 50
17 15 14 19 20 19 19 19 24 23 24 30 54 54 56 60 61 60 61 60 59 61 68 68 68 68 67 66 65 66 64 65 64 62 60 56 54 52 51 51 53 51 51 50 50 50 51 49 50
16 21 19 18 15 14 19 22 21 21 23 49 55 57 56 56 60 60 59 58 60 63 67 66 66 66 66 66 65 65 65 64 63 60 57 55 52 50 51 51 51 51 51 50 50 51 50 50 50
17 21 19 15 14 12 20 16 21 22 22 42 50 57 55 54 55 60 64 63 61 64 66 63 63 63 62 64 64 62 61 59 58 55 55 52 51 51 51 50 51 51 50 50 51 52 52 51 49
19 23 20 22 22 15 15 15 17 25 21 48 50 56 57 59 60 60 60 61 62 62 62 61 60 60 59 59 58 57 54 55 53 52 52 53 53 52 51 50 50 50 50 50 50 50 51 53 52
23 22 20 24 23 19 17 18 14 19 37 46 47 53 53 53 54 55 57 58 59 60 59 59 58 58 57 56 56 53 52 52 51 50 48 47 49 50 50 49 50 50 49 49 50 51 50 51 51
20 19 23 23 20 20 20 19 16 31 45 45 46 49 50 51 52 53 55 56 57 57 57 57 57 56 55 53 52 52 52 49 49 48 48 47 46 47 46 48 47 47 49 50 50 50 50 50 49
21 21 26 20 22 19 24 24 24 46 46 46 46 48 49 50 51 52 53 55 56 56 56 56 55 54 53 51 50 51 49 49 48 49 46 48 46 45 46 45 46 47 49 48 49 50 50 49 49
18 21 23 25 25 24 25 35 40 45 45 45 46 47 48 49 50 51 53 54 54 54 55 54 52 51 50 51 51 49 48 48 47 47 47 47 47 46 46 46 47 46 45 45 47 47 47 47 46
19 25 22 27 23 23 24 30 36 42 44 45 45 46 48 49 50 52 53 53 53 53 53 51 50 50 50 48 48 49 46 46 46 47 46 45 46 46 47 46 46 47 47 48 48 47 45 43 44
19 19 24 29 28 25 25 29 35 40 44 44 45 48 48 49 51 53 53 52 52 51 50 50 48 48 47 48 47 46 45 44 46 44 46 46 47 46 46 45 45 45 45 45 43 42 42 41 41
21 20 24 27 26 33 34 34 40 41 41 45 45 48 48 50 51 52 51 51 51 51 50 50 49 48 45 46 46 45 44 45 46 46 45 46 46 45 46 45 45 45 43 42 40 39 40 40 40
Lifted_Index
8 6 5 3 1 0 -0 -0 -0 -1 -3 -3 -3 -3 -2 -1 1 1 1 0 0 0 -1 -2 -4 -5 -5 -5 -5 -5 -6 -6 -6 -6 -6 -5 -5 -5 -4 -4 -4 -4 -4 -4 -4 -4 -4 -4 -4
7 6 5 3 2 0 -0 -0 -1 -1 -2 -2 -2 -2 -2 -1 1 2 0 -0 1 1 -0 -2 -4 -5 -5 -5 -5 -5 -5 -6 -6 -6 -5 -5 -5 -4 -4 -4 -4 -4 -4 -4 -4 -4 -4 -4 -4
7 6 5 3 2 0 -0 -1 -1 -1 -1 -1 -1 -1 -1 0 2 2 0 -0 1 1 -0 -2 -4 -4 -5 -5 -5 -5 -5 -5 -5 -5 -5 -4 -4 -3 -3 -3 -3 -3 -3 -3 -4 -4 -4 -4 -3
6 5 4 2 1 -0 -1 -1 -1 -1 -1 -1 -1 -1 -0 1 2 1 0 -1 0 0 -1 -2 -3 -4 -4 -4 -4 -4 -4 -4 -4 -4 -3 -3 -3 -2 -2 -2 -2 -3 -3 -3 -3 -3 -3 -2 -2
5 5 3 2 1 -1 -2 -1 -1 -1 -1 -1 -1 -1 -1 1 1 1 0 -1 -1 -1 -1 -2 -3 -3 -3 -3 -3 -3 -3 -3 -3 -3 -2 -2 -2 -2 -2 -2 -2 -3 -3 -2 -2 -1 -1 -0 0
5 4 3 1 0 -1 -2 -2 -1 -1 -1 -2 -2 -2 -1 -0 1 1 -0 -2 -2 -2 -1 -2 -2 -2 -2 -2 -2 -2 -2 -2 -2 -2 -2 -2 -2 -2 -2 -2 -2 -2 -1 0 1 1 1 2 2
5 4 2 1 0 -1 -1 -2 -1 -1 -1 -2 -3 -2 -2 -1 0 0 -0 -2 -2 -2 -1 -1 -2 -2 -2 -2 -2 -2 -2 -2 -2 -2 -2 -2 -2 -2 -2 -3 -3 -2 0 2 2 2 2 2 2
5 4 2 1 0 -0 -1 -1 -1 -1 -1 -2 -2 -3 -2 -1 -0 0 -0 -1 -2 -1 -1 -1 -1 -1 -2 -2 -2 -2 -2 -2 -1 -2 -2 -2 -2 -3 -3 -3 -3 -1 1 2 2 1 1 1 1
5 3 2 1 0 -0 -1 -1 -1 -1 -1 -1 -2 -2 -2 -1 0 1 1 0 -1 -1 -0 -0 -0 -0 -1 -1 -2 -2 -1 -1 -1 -1 -1 -1 -2 -2 -3 -3 -2 -0 1 1 1 0 -0 -0 -1
4 3 2 1 -0 -1 -1 -1 -1 -1 -1 -1 -1 -1 -1 0 1 1 2 1 0 -0 0 0 1 1 0 -0 -1 -1 -1 -1 -0 1 1 0 -0 -1 -1 -1 -1 -0 0 1 0 0 -0 -1 -0
4 3 2 1 0 -1 -1 -1 -2 -1 -1 -1 -1 -1 -1 0 1 2 2 2 2 1 1 1 1 1 1 0 0 0 -0 0 1 2 1 1 0 -0 -0 -0 0 0 0 1 1 1 1 1 1
3 3 2 1 0 -0 -1 -1 -2 -1 -1 -1 -1 -1 -1 0 1 1 2 2 2 2 1 1 1 1 1 1 1 0 -0 1 1 1 1 0 -0 -0 0 0 0 0 1 1 1 1 2 2 3
3 2 2 1 1 0 -0 -1 -1 -1 -1 -1 -1 -1 -1 -1 -0 0 1 2 2 2 1 1 0 0 0 0 0 0 0 0 0 0 0 -0 -1 -0 0 0 0 0 1 1 1 2 2 4 5
3 2 2 1 1 1 0 -0 -1 -1 -1 -1 -1 -1 -1 -1 -1 -1 0 1 1 1 1 0 -0 -0 -0 -0 0 0 0 -0 -1 -1 -1 -1 -0 0 1 1 1 1 1 1 2 2 3 5 6
4 3 2 2 2 1 1 1 0 -1 -1 -1 -1 -2 -2 -2 -2 -1 -1 -0 -0 -0 -0 -1 -2 -2 -2 -2 -1 -1 -1 -1 -1 -1 -1 -1 -0 1 1 1 1 1 1 2 3 4 5 6 7
4 3 2 2 2 1 1 1 1 -0 -1 -1 -2 -3 -3 -3 -2 -2 -1 -1 -1 -1 -2 -3 -3 -4 -3 -3 -3 -2 -2 -2 -2 -2 -2 -1 -0 1 2 2 1 1 2 3 4 5 6 8 8
3 3 2 1 1 1 1 1 1 0 -1 -1 -2 -3 -3 -3 -3 -2 -2 -2 -2 -2 -2 -3 -4 -5 -5 -4 -4 -3 -3 -2 -2 -2 -2 -1 -0 1 2 2 2 2 3 4 6 7 8 9 9
2 2 1 0 0 0 0 1 1 0 -0 -1 -2 -3 -4 -4 -4 -3 -2 -2 -2 -2 -3 -4 -4 -5 -5 -5 -4 -4 -3 -2 -2 -2 -1 -1 0 1 2 2 3 4 5 6 8 9 9 9 10
2 1 0 0 0 0 0 1 1 0 -0 -1 -3 -4 -4 -4 -4 -4 -3 -1 -1 -2 -3 -4 -5 -5 -5 -5 -4 -4 -4 -3 -3 -2 -1 -0 1 2 2 3 5 6 7 8 9 10 9 9 9
2 1 1 0 0 0 0 0 1 0 -0 -2 -3 -4 -4 -4 -4 -3 -3 -1 -1 -1 -3 -5 -5 -5 -5 -5 -4 -4 -4 -4 -3 -2 -1 -0 1 3 4 6 7 8 9 9 9 9 9 9 9
2 2 1 1 0 0 0 0 1 0 -0 -2 -3 -4 -3 -3 -3 -3 -3 -2 -2 -2 -3 -5 -5 -5 -5 -5 -5 -4 -4 -3 -2 -1 -0 1 3 5 7 8 8 9 9 9 9 8 8 9 9
3 2 2 2 1 0 0 1 1 1 -0 -2 -3 -3 -3 -3 -3 -4 -4 -3 -3 -3 -4 -4 -5 -5 -5 -4 -4 -3 -3 -2 -1 0 1 3 5 7 8 8 8 8 8 9 8 8 8 9 9
3 3 2 2 2 1 1 1 1 1 -0 -2 -3 -3 -3 -3 -4 -4 -3 -3 -3 -2 -2 -3 -3 -3 -3 -2 -2 -2 -1 -0 1 1 3 5 7 8 8 8 8 8 8 9 9 9 9 9 9
3 3 2 2 2 2 1 1 1 1 -1 -1 -2 -2 -2 -3 -2 -2 -1 -1 -1 -0 0 0 0 0 0 0 0 0 1 2 2 3 6 8 9 9 9 9 9 9 9 9 9 9 9 9 9
3 3 2 2 1 1 1 1 1 0 -1 -1 -1 -1 -1 -1 -0 0 1 1 1 2 3 3 3 3 2 2 2 2 3 4 5 6 8 10 10 11 11 11 10 10 10 10 10 10 10 10 9
3 3 2 1 0 0 0 0 -0 -1 -1 -1 -1 -0 0 1 1 2 2 2 3 3 4 4 3 3 2 3 3 4 6 7 8 9 10 11 11 11 11 11 11 11 11 11 11 10 10 10 10
2 2 2 2 1 0 0 -0 -1 -2 -2 -1 -1 -0 1 1 1 2 2 2 3 4 4 3 3 2 2 3 4 5 7 7 8 10 11 11 12 11 11 11 11 11 11 11 11 11 11 10 10
2 2 2 1 1 0 0 -0 -1 -2 -2 -1 -1 -0 0 1 1 1 2 3 3 4 4 3 2 2 2 3 5 6 7 8 9 11 11 12 12 11 11 11 11 11 11 11 11 11 11 11 11
1 1 1 1 1 0 0 -0 -1 -1 -1 -1 -0 -0 -0 0 1 1 2 3 3 4 3 3 2 2 3 4 5 6 8 10 11 11 11 11 11 11 11 11 11 11 11 12 12 12 12 12 12
0 1 1 1 1 0 0 -0 -0 -0 -0 -0 -0 -1 -0 0 1 1 2 3 3 4 3 3 3 2 3 4 5 6 9 11 11 11 11 11 11 11 11 11 11 11 12 12 12 13 13 13 13